WZZ5324 EDDH-EDDN

Flight info

Callsign WZZ5324
Flight time 0h 47m
Altitude 35000
Route AMLUH2G AMLUH M852 DENIX DCT ZUCKA DCT GALMA M736 TABAT Q244 NIBIL/N0403F230 Q244 PIVIR PIVIR1V
Aircraft A321/M-SDE3FGHIRWY/LB1

Departure

Time 2026-04-24 14:11
Airport Hamburg Helmut Schmidt Airport (EDDH)

Arrival

Time 2026-04-24 14:58
Airport Nuremberg Airport (EDDN)
Time Latitude Longitude Altitude Speed Heading
2026-04-24 13:40 53.62989 10.00350 46 ft 0 kts 117°
2026-04-24 13:49 53.62989 10.00349 46 ft 0 kts 117°
2026-04-24 14:03 53.62999 10.00318 44 ft 4 kts 118°
2026-04-24 14:03 53.63012 10.00278 41 ft 4 kts 120°
2026-04-24 14:03 53.63026 10.00239 43 ft 4 kts 124°
2026-04-24 14:03 53.63042 10.00203 41 ft 4 kts 135°
2026-04-24 14:04 53.63062 10.00180 41 ft 4 kts 182°
2026-04-24 14:04 53.63069 10.00182 41 ft 0 kts 213°
2026-04-24 14:08 53.63069 10.00181 41 ft 1 kts 213°
2026-04-24 14:08 53.63030 10.00140 45 ft 13 kts 212°
2026-04-24 14:08 53.62950 10.00052 43 ft 11 kts 218°
2026-04-24 14:09 53.62905 9.99940 46 ft 9 kts 242°
2026-04-24 14:09 53.62890 9.99893 44 ft 5 kts 242°
2026-04-24 14:09 53.62867 9.99799 47 ft 12 kts 262°
2026-04-24 14:09 53.62901 9.99716 47 ft 0 kts 331°
2026-04-24 14:10 53.62905 9.99711 47 ft 5 kts 331°
2026-04-24 14:10 53.63328 9.99344 47 ft 97 kts 333°
2026-04-24 14:10 53.64114 9.98667 42 ft 151 kts 333°
2026-04-24 14:10 53.65098 9.97789 492 ft 160 kts 328°
2026-04-24 14:11 53.66073 9.96969 1155 ft 158 kts 328°
2026-04-24 14:11 53.67063 9.96131 1839 ft 159 kts 329°
2026-04-24 14:11 53.69372 9.94676 2443 ft 200 kts 351°
2026-04-24 14:12 53.70787 9.94667 2962 ft 205 kts 357°
2026-04-24 14:12 53.72219 9.94891 3590 ft 211 kts 14°
2026-04-24 14:12 53.73429 9.96330 4216 ft 221 kts 47°
2026-04-24 14:12 53.74003 9.98778 4854 ft 231 kts 76°
2026-04-24 14:13 53.74194 10.01477 5468 ft 234 kts 84°
2026-04-24 14:13 53.73932 10.04237 6050 ft 245 kts 104°
2026-04-24 14:13 53.73144 10.06940 6268 ft 268 kts 115°
2026-04-24 14:13 53.72201 10.09719 6666 ft 276 kts 116°
2026-04-24 14:14 53.71231 10.12576 7035 ft 289 kts 116°
2026-04-24 14:14 53.70216 10.15575 7543 ft 297 kts 116°
2026-04-24 14:14 53.67313 10.20688 8833 ft 313 kts 150°
2026-04-24 14:15 53.65284 10.22038 9488 ft 316 kts 166°
2026-04-24 14:15 53.63148 10.23002 10150 ft 320 kts 166°
2026-04-24 14:15 53.61715 10.23651 10453 ft 327 kts 166°
2026-04-24 14:15 53.59438 10.24685 10590 ft 350 kts 165°
2026-04-24 14:16 53.57021 10.25790 10702 ft 371 kts 165°
2026-04-24 14:16 53.54460 10.26964 10915 ft 387 kts 165°
2026-04-24 14:16 53.50992 10.28555 11634 ft 392 kts 165°
2026-04-24 14:17 53.46553 10.30584 12692 ft 397 kts 165°
2026-04-24 14:17 53.43882 10.31803 13335 ft 399 kts 165°
2026-04-24 14:17 53.38483 10.34249 14509 ft 405 kts 166°
2026-04-24 14:18 53.35790 10.35457 15043 ft 408 kts 166°
2026-04-24 14:18 53.32997 10.36709 15601 ft 410 kts 166°
2026-04-24 14:18 53.30273 10.37926 16170 ft 413 kts 166°
2026-04-24 14:18 53.27484 10.39170 16727 ft 416 kts 166°
2026-04-24 14:19 53.24682 10.40419 17283 ft 418 kts 167°
2026-04-24 14:19 53.21867 10.41677 17836 ft 421 kts 167°
2026-04-24 14:19 53.19023 10.42952 18388 ft 424 kts 167°
2026-04-24 14:19 53.16167 10.44228 18878 ft 426 kts 167°
2026-04-24 14:20 53.13291 10.45505 19339 ft 429 kts 167°
2026-04-24 14:20 53.10386 10.46660 19790 ft 431 kts 170°
2026-04-24 14:20 53.07446 10.47642 20254 ft 432 kts 172°
2026-04-24 14:20 53.04470 10.48519 20710 ft 434 kts 173°
2026-04-24 14:21 53.01485 10.49355 21155 ft 437 kts 173°
2026-04-24 14:21 52.98477 10.50202 21587 ft 439 kts 173°
2026-04-24 14:21 52.95454 10.51084 22010 ft 442 kts 173°
2026-04-24 14:21 52.92421 10.52002 22429 ft 444 kts 172°
2026-04-24 14:22 52.89373 10.52951 22839 ft 446 kts 172°
2026-04-24 14:22 52.86316 10.53912 23254 ft 449 kts 172°
2026-04-24 14:22 52.80146 10.55835 23995 ft 453 kts 173°
2026-04-24 14:23 52.77040 10.56791 24331 ft 455 kts 173°
2026-04-24 14:23 52.73960 10.57735 24646 ft 457 kts 173°
2026-04-24 14:23 52.70819 10.58694 24993 ft 459 kts 173°
2026-04-24 14:23 52.67677 10.59653 25324 ft 461 kts 173°
2026-04-24 14:24 52.64508 10.60626 25629 ft 464 kts 173°
2026-04-24 14:24 52.61324 10.61601 25953 ft 466 kts 173°
2026-04-24 14:24 52.58136 10.62576 26278 ft 467 kts 173°
2026-04-24 14:24 52.54936 10.63549 26599 ft 469 kts 173°
2026-04-24 14:25 52.51720 10.64526 26910 ft 470 kts 173°
2026-04-24 14:25 52.48497 10.65507 27228 ft 472 kts 173°
2026-04-24 14:25 52.45266 10.66492 27552 ft 473 kts 173°
2026-04-24 14:25 52.42019 10.67480 27874 ft 475 kts 173°
2026-04-24 14:26 52.38767 10.68467 28192 ft 476 kts 173°
2026-04-24 14:26 52.35503 10.69453 28505 ft 478 kts 173°
2026-04-24 14:26 52.32228 10.70435 28885 ft 477 kts 173°
2026-04-24 14:26 52.28970 10.71408 29333 ft 476 kts 173°
2026-04-24 14:27 52.25714 10.72378 29744 ft 474 kts 173°
2026-04-24 14:27 52.22480 10.73343 30208 ft 472 kts 173°
2026-04-24 14:27 52.19256 10.74312 30586 ft 470 kts 173°
2026-04-24 14:27 52.16047 10.75277 30950 ft 469 kts 173°
2026-04-24 14:28 52.12843 10.76240 31298 ft 468 kts 174°
2026-04-24 14:28 52.09642 10.77200 31643 ft 467 kts 174°
2026-04-24 14:28 52.06450 10.78152 31975 ft 466 kts 174°
2026-04-24 14:28 52.03260 10.79099 32313 ft 465 kts 174°
2026-04-24 14:29 52.00082 10.80038 32631 ft 464 kts 174°
2026-04-24 14:29 51.96905 10.80976 32953 ft 463 kts 174°
2026-04-24 14:29 51.93729 10.81912 33217 ft 465 kts 174°
2026-04-24 14:29 51.90537 10.82854 33471 ft 466 kts 174°
2026-04-24 14:30 51.88426 10.83477 33658 ft 466 kts 174°
2026-04-24 14:30 51.84205 10.84716 34055 ft 465 kts 174°
2026-04-24 14:30 51.81023 10.85649 34333 ft 464 kts 174°
2026-04-24 14:30 51.77841 10.86581 34575 ft 464 kts 174°
2026-04-24 14:31 51.74664 10.87512 34842 ft 463 kts 174°
2026-04-24 14:31 51.71536 10.88828 35075 ft 469 kts 164°
2026-04-24 14:31 51.68509 10.90841 35156 ft 470 kts 163°
2026-04-24 14:32 51.62268 10.93665 35160 ft 463 kts 173°
2026-04-24 14:32 51.55945 10.95525 35163 ft 462 kts 175°
2026-04-24 14:33 51.49621 10.97451 35164 ft 462 kts 173°
2026-04-24 14:33 51.43344 10.99673 35160 ft 462 kts 171°
2026-04-24 14:34 51.37084 11.02003 35168 ft 462 kts 171°
2026-04-24 14:34 51.30817 11.04276 35176 ft 462 kts 172°
2026-04-24 14:35 51.24536 11.06488 35153 ft 462 kts 172°
2026-04-24 14:35 51.18282 11.08676 35156 ft 463 kts 172°
2026-04-24 14:36 51.11961 11.10549 35161 ft 460 kts 178°
2026-04-24 14:36 51.05592 11.11618 35166 ft 460 kts 179°
2026-04-24 14:37 50.99226 11.12600 35162 ft 460 kts 178°
2026-04-24 14:37 50.92844 11.13610 35172 ft 461 kts 178°
2026-04-24 14:38 50.86456 11.14651 35178 ft 461 kts 178°
2026-04-24 14:38 50.80082 11.15695 35176 ft 461 kts 178°
2026-04-24 14:39 50.73746 11.16718 35180 ft 461 kts 178°
2026-04-24 14:39 50.70553 11.17229 34965 ft 460 kts 178°
2026-04-24 14:39 50.67352 11.17740 34134 ft 466 kts 178°
2026-04-24 14:39 50.64110 11.18254 33260 ft 469 kts 177°
2026-04-24 14:40 50.60854 11.18767 32399 ft 473 kts 177°
2026-04-24 14:40 50.57563 11.19286 31526 ft 476 kts 177°
2026-04-24 14:40 50.54251 11.19809 30629 ft 480 kts 176°
2026-04-24 14:40 50.50906 11.20338 29536 ft 486 kts 176°
2026-04-24 14:41 50.47537 11.20880 28635 ft 486 kts 176°
2026-04-24 14:41 50.44203 11.21421 28113 ft 480 kts 176°
2026-04-24 14:41 50.40892 11.21956 27460 ft 477 kts 176°
2026-04-24 14:41 50.37607 11.22481 26831 ft 473 kts 176°
2026-04-24 14:42 50.34342 11.22994 26195 ft 470 kts 176°
2026-04-24 14:42 50.31101 11.23497 25559 ft 466 kts 176°
2026-04-24 14:42 50.27924 11.23991 24956 ft 463 kts 176°
2026-04-24 14:42 50.24729 11.24492 24339 ft 461 kts 176°
2026-04-24 14:43 50.21543 11.24989 23724 ft 458 kts 176°
2026-04-24 14:43 50.18379 11.25485 23045 ft 455 kts 176°
2026-04-24 14:43 50.15245 11.25979 22446 ft 450 kts 176°
2026-04-24 14:43 50.12150 11.26466 21867 ft 445 kts 176°
2026-04-24 14:44 50.09085 11.26946 21299 ft 440 kts 176°
2026-04-24 14:44 50.06053 11.27420 20747 ft 435 kts 176°
2026-04-24 14:44 50.03055 11.27886 20212 ft 431 kts 176°
2026-04-24 14:44 50.00084 11.28345 19687 ft 427 kts 176°
2026-04-24 14:45 49.97137 11.28801 19180 ft 424 kts 176°
2026-04-24 14:45 49.94214 11.29254 18671 ft 421 kts 176°
2026-04-24 14:45 49.91302 11.29705 18126 ft 419 kts 176°
2026-04-24 14:45 49.88408 11.30152 17606 ft 415 kts 176°
2026-04-24 14:46 49.85546 11.30594 17089 ft 412 kts 175°
2026-04-24 14:46 49.82712 11.31037 16556 ft 408 kts 175°
2026-04-24 14:46 49.79898 11.31468 16042 ft 405 kts 175°
2026-04-24 14:46 49.77089 11.31897 15365 ft 406 kts 175°
2026-04-24 14:47 49.75234 11.32181 15016 ft 404 kts 175°
2026-04-24 14:47 49.71499 11.32754 14279 ft 402 kts 175°
2026-04-24 14:47 49.68724 11.33179 13706 ft 400 kts 175°
2026-04-24 14:47 49.65972 11.33601 13203 ft 394 kts 175°
2026-04-24 14:48 49.63262 11.34251 12323 ft 399 kts 164°
2026-04-24 14:48 49.60696 11.35982 11379 ft 406 kts 146°
2026-04-24 14:48 49.58585 11.38755 10973 ft 395 kts 130°
2026-04-24 14:48 49.57063 11.42205 10700 ft 380 kts 114°
2026-04-24 14:49 49.56190 11.45929 10587 ft 361 kts 100°
2026-04-24 14:49 49.55784 11.49616 10465 ft 346 kts 96°
2026-04-24 14:49 49.55416 11.53200 10343 ft 333 kts 96°
2026-04-24 14:49 49.55059 11.56663 10218 ft 322 kts 96°
2026-04-24 14:50 49.54551 11.59952 10095 ft 314 kts 112°
2026-04-24 14:50 49.53281 11.62642 9668 ft 316 kts 140°
2026-04-24 14:50 49.51325 11.64088 9314 ft 310 kts 170°
2026-04-24 14:50 49.49212 11.64112 8748 ft 302 kts 191°
2026-04-24 14:51 49.47237 11.63208 8047 ft 293 kts 213°
2026-04-24 14:51 49.45737 11.61210 7324 ft 282 kts 239°
2026-04-24 14:51 49.44989 11.58512 6649 ft 271 kts 265°
2026-04-24 14:51 49.45047 11.55689 6004 ft 261 kts 282°
2026-04-24 14:52 49.45340 11.52944 5626 ft 258 kts 282°
2026-04-24 14:52 49.45611 11.50293 5562 ft 246 kts 281°
2026-04-24 14:52 49.45870 11.47745 5460 ft 236 kts 281°
2026-04-24 14:52 49.46117 11.45288 5355 ft 231 kts 280°
2026-04-24 14:53 49.46359 11.42862 5250 ft 228 kts 280°
2026-04-24 14:53 49.46599 11.40431 4996 ft 231 kts 280°
2026-04-24 14:53 49.46844 11.38013 4671 ft 228 kts 280°
2026-04-24 14:53 49.47088 11.35631 4357 ft 221 kts 281°
2026-04-24 14:54 49.47314 11.33395 4127 ft 210 kts 280°
2026-04-24 14:54 49.47531 11.31244 3880 ft 195 kts 280°
2026-04-24 14:54 49.47727 11.29289 3670 ft 174 kts 281°
2026-04-24 14:54 49.47901 11.27540 3416 ft 157 kts 281°
2026-04-24 14:55 49.48012 11.26444 3258 ft 150 kts 281°
2026-04-24 14:55 49.48219 11.24379 2983 ft 146 kts 281°
2026-04-24 14:55 49.48374 11.22836 2791 ft 145 kts 280°
2026-04-24 14:55 49.48528 11.21309 2599 ft 144 kts 279°
2026-04-24 14:56 49.48679 11.19793 2413 ft 143 kts 279°
2026-04-24 14:56 49.48830 11.18285 2223 ft 142 kts 281°
2026-04-24 14:56 49.48979 11.16784 2035 ft 142 kts 281°
2026-04-24 14:56 49.49128 11.15274 1828 ft 144 kts 278°
2026-04-24 14:57 49.49281 11.13742 1631 ft 145 kts 278°
2026-04-24 14:57 49.49437 11.12203 1441 ft 146 kts 278°
2026-04-24 14:57 49.49584 11.10680 1214 ft 142 kts 279°
2026-04-24 14:57 49.49733 11.09188 1057 ft 140 kts 279°
2026-04-24 14:58 49.49861 11.07903 1025 ft 99 kts 277°
2026-04-24 14:58 49.49938 11.07113 1023 ft 51 kts 277°
2026-04-24 14:58 49.49979 11.06703 1020 ft 26 kts 279°
2026-04-24 14:58 49.49961 11.06500 1024 ft 15 kts 212°
2026-04-24 14:59 49.49885 11.06494 1022 ft 12 kts 162°
2026-04-24 14:59 49.49832 11.06526 1021 ft 0 kts 155°
2026-04-24 15:00 49.49823 11.06532 1021 ft 5 kts 151°
2026-04-24 15:00 49.49793 11.06632 1020 ft 13 kts 100°
2026-04-24 15:00 49.49779 11.06779 1019 ft 15 kts 98°
2026-04-24 15:01 49.49763 11.06937 1020 ft 15 kts 99°
2026-04-24 15:01 49.49747 11.07095 1021 ft 15 kts 98°
2026-04-24 15:01 49.49703 11.07226 1023 ft 14 kts 160°
2026-04-24 15:01 49.49635 11.07280 1025 ft 12 kts 103°
2026-04-24 15:02 49.49621 11.07407 1025 ft 12 kts 98°
2026-04-24 15:02 49.49608 11.07545 1023 ft 12 kts 98°
2026-04-24 15:02 49.49579 11.07592 1023 ft 8 kts 172°
2026-04-24 15:02 49.49544 11.07587 1026 ft 0 kts 187°